Regional Weather Roundup
Issued by NWS

Home | Current Version | Previous Version | Graphics & Text | Print | Product List | Glossary On
Versions: 1 2 3 4 5 6 7 8 9 10 11 12 13 14 15 16 17 18 19 20 21 22 23 24 25 26 27 28 29 30 31 32 33 34 35 36 37 38 39 40 41 42 43 44 45 46 47 48 49 50
000
ASUS45 KABQ 180001
RWRNM
WEATHER ROUNDUP FOR NEW MEXICO
NATIONAL WEATHER SERVICE ALBUQUERQUE NM
600 PM MDT THU APR 17 2014

NOTE: "FAIR" MEANS FEW OR NO CLOUDS BELOW 12,000 FEET AGL WITH NO
       SIGNIFICANT WEATHER OR OBSTRUCTIONS TO VISION.

      THIS PRODUCT IS RELEASED AS TWO VERSIONS.  ONE VERSION NEAR
      THE TOP OF THE HOUR CONTAINING PRELIMINARY DATA FROM ALBUQUERQUE
      AND OTHER STATIONS.  A FINAL VERSION WITH ADDITIONAL DATA IS
      ISSUED ABOUT 10 MINUTES AFTER THE HOUR.

NMZ501-503-504-510>518-180100-
NORTHWEST PLATEAU/NORTHCENTRAL MOUNTAINS

CITY           SKY/WX    TMP DP  RH WIND       PRES   REMARKS
FARMINGTON     SUNNY     68  19  15 NW9G23    30.05S
6HR MIN TEMP:  58; 6HR MAX TEMP:  69;

LOS ALAMOS     SUNNY     59  18  19 SE10G22   30.15S
SANTA FE       SUNNY     64  26  23 SE16      30.11F
6HR MIN TEMP:  53; 6HR MAX TEMP:  64;

TAOS           MOSUNNY   61  23  23 SW17G24   30.14S
ANGEL FIRE     FAIR      46  36  66 S20G26    30.20R

$$
NMZ402-403-502-505>509-180100-
WESTCENTRAL MOUNTAINS/SOUTHWEST MOUNTAINS

CITY           SKY/WX    TMP DP  RH WIND       PRES   REMARKS
GALLUP         SUNNY     69  20  15 W8        30.09S
6HR MIN TEMP:  58; 6HR MAX TEMP:  72;

GRANTS         SUNNY     67  14  13 CALM      30.12S

$$
NMZ407-409-411-412-180100-
SOUTHERN DESERTS

CITY           SKY/WX    TMP DP  RH WIND       PRES   REMARKS
LORDSBURG      FAIR      81  14   8 SE5       29.98S
DEMING         SUNNY     79  17  10 E9G20     30.00S
6HR MIN TEMP:  74; 6HR MAX TEMP:  81;

LAS CRUCES     SUNNY     78  19  11 S8        30.04S
HOLLOMAN AFB   MOSUNNY   77  19  11 SW6       30.02F
ALAMOGORDO     MOSUNNY   75  18  11 CALM      30.04S
T OR C         SUNNY     75  21  13 CALM      30.03F
6HR MIN TEMP:  66; 6HR MAX TEMP:  75;


$$
NMZ519>523-180100-
CENTRAL VALLEYS/CENTRAL HIGHLANDS

CITY           SKY/WX    TMP DP  RH WIND       PRES   REMARKS
ALBUQUERQUE    MOSUNNY   68  22  17 S7        30.08F
6HR MIN TEMP:  60; 6HR MAX TEMP:  69;

DOUBLE EAGLE   MOSUNNY   66  21  18 VRB6      30.10F
MORIARTY ARPT  FAIR      62  24  23 S14G20    30.16S
6HR MIN TEMP:  52; 6HR MAX TEMP:  64;

CLINES CORNERS SUNNY     56  26  31 S10G18    30.18S
6HR MIN TEMP:  45; 6HR MAX TEMP:  57;

BELEN          NOT AVBL
SOCORRO        NOT AVBL

$$
NMZ524>526-539-540-180100-
SOUTHCENTRAL MOUNTAINS

CITY           SKY/WX    TMP DP  RH WIND       PRES   REMARKS
RUIDOSO        NOT AVBL

$$
NMZ527>531-180100-
NORTHEAST HIGHLANDS/NORTHEAST PLAINS

CITY           SKY/WX    TMP DP  RH WIND       PRES   REMARKS
LAS VEGAS      SUNNY     53  28  38 SW14G21   30.18F
6HR MIN TEMP:  42; 6HR MAX TEMP:  53;

RATON          MOSUNNY   50  36  58 SW10      30.16F
6HR MIN TEMP:  41; 6HR MAX TEMP:  50;

CLAYTON        SUNNY     50  32  50 SE12      30.18F
6HR MIN TEMP:  45; 6HR MAX TEMP:  51;


$$
NMZ532>537-180100-
EASTCENTRAL PLAINS

CITY           SKY/WX    TMP DP  RH WIND       PRES   REMARKS
TUCUMCARI      SUNNY     59  34  39 E12       30.16S
6HR MIN TEMP:  54; 6HR MAX TEMP:  62;

CANNON AFB     SUNNY     61  33  35 NE10      30.16S
6HR MIN TEMP:  56; 6HR MAX TEMP:  62;

CLOVIS AIRPORT SUNNY     61  34  36 NE9       30.19S

$$
NMZ028-029-538-180100-
SOUTHEAST PLAINS

CITY           SKY/WX    TMP DP  RH WIND       PRES   REMARKS
ROSWELL        SUNNY     72  30  21 N9        30.09S
6HR MIN TEMP:  62; 6HR MAX TEMP:  73;

ARTESIA        SUNNY     70  32  24 NE6       30.09S
CARLSBAD       SUNNY     75  28  17 N6        30.06S
6HR MIN TEMP:  64; 6HR MAX TEMP:  76;

HOBBS          SUNNY     68  32  26 NE9       30.11S


$$



USA.gov is the U.S. government's official web portal to all federal, state and local government web resources and services.